Location: Newark
(32.9167°N, 112.9667°W)
Time: 20:58:44
(UTC+00:00)

Envisat - Visible Passes

Search period start: 15 October 2019 00:00
Search period end: 25 October 2019 00:00
Orbit: 764 x 766 km, 98.1° (Epoch: 15 October)

Date Brightness Start Highest point End Pass type
(mag) Time Alt. Az. Time Alt. Az. Time Alt. Az.
15 Oct 4.1 02:11:23 10° S 02:16:14 47° W 02:21:08 10° NNW visible
16 Oct 2.9 01:34:26 10° SSE 01:39:29 72° ENE 01:44:33 10° N visible
17 Oct 5.3 02:37:42 10° SSW 02:41:51 25° W 02:46:00 10° NW visible
17 Oct 6.4 13:13:04 10° ENE 13:15:45 14° E 13:18:26 10° SE visible
18 Oct 3.5 01:59:57 10° S 02:04:58 61° W 02:10:00 10° NNW visible
19 Oct 3.1 01:23:19 10° SSE 01:28:15 55° ENE 01:33:13 10° N visible
19 Oct 6.1 03:05:10 10° WSW 03:07:32 13° W 03:09:55 10° WNW visible
20 Oct 4.8 02:26:01 10° SSW 02:30:31 32° W 02:35:04 10° NW visible
20 Oct 6.8 13:03:23 10° E 13:04:23 11° E 13:05:24 10° ESE visible
21 Oct 3.1 01:48:38 10° S 01:53:42 80° WSW 01:58:48 10° NNW visible
22 Oct 3.4 01:12:18 10° SE 01:17:02 42° ENE 01:21:49 10° N visible
22 Oct 5.8 02:52:52 10° SW 02:56:11 17° W 02:59:31 10° NW visible
23 Oct 4.3 02:14:26 10° S 02:19:13 42° W 02:24:02 10° NNW visible
24 Oct 2.9 01:37:23 10° SSE 01:42:27 79° ENE 01:47:32 10° N visible
